| time (UTC) | temp F | wind direction | speed MPH | gust MPH | rain 1hr in | rain 24hr in | rain mn in | humidity % | barometer mb |
| 20260504034544 | 54 | 355 | 2.0 | 5.0 | 0.00 | 0.00 | 0.00 | 42 | 1008.7 |
| 20260504033042 | 56 | 355 | 2.0 | 5.0 | 0.00 | 0.00 | 0.00 | 40 | 1008.3 |
| 20260504031553 | 57 | 12 | 5.0 | 11.0 | 0.00 | 0.00 | 0.00 | 38 | 1008.0 |
| 20260504030043 | 58 | 5 | 8.0 | 14.0 | 0.00 | 0.00 | 0.00 | 37 | 1007.8 |
| 20260504024536 | 59 | 26 | 10.0 | 16.0 | 0.00 | 0.00 | 0.00 | 36 | 1007.6 |
| 20260504023043 | 61 | 360 | 11.0 | 19.0 | 0.00 | 0.00 | 0.00 | 33 | 1007.5 |
| 20260504021540 | 62 | 5 | 13.0 | 21.0 | 0.00 | 0.00 | 0.00 | 32 | 1007.6 |
| 20260504020043 | 65 | 9 | 10.0 | 17.0 | 0.00 | 0.00 | 0.00 | 29 | 1007.5 |
| 20260504014542 | 66 | 5 | 10.0 | 17.0 | 0.00 | 0.00 | 0.00 | 26 | 1007.3 |
| 20260504013041 | 68 | 5 | 11.0 | 18.0 | 0.00 | 0.00 | 0.00 | 23 | 1007.3 |
| 20260504011543 | 71 | 331 | 8.0 | 26.0 | 0.00 | 0.00 | 0.00 | 22 | 1007.2 |
| 20260504010048 | 71 | 306 | 7.0 | 17.0 | 0.00 | 0.00 | 0.00 | 21 | 1007.2 |
| 20260504004541 | 72 | 304 | 5.0 | 17.0 | 0.00 | 0.00 | 0.00 | 20 | 1007.2 |
| 20260504003040 | 71 | 275 | 10.0 | 17.0 | 0.00 | 0.00 | 0.00 | 19 | 1007.3 |
| 20260504001543 | 72 | 309 | 9.0 | 20.0 | 0.00 | 0.00 | 0.00 | 19 | 1007.5 |
| 20260504000036 | 72 | 350 | 10.0 | 19.0 | 0.00 | 0.00 | 0.00 | 20 | 1007.6 |
| 20260503234558 | 72 | 352 | 7.0 | 16.0 | 0.00 | 0.00 | 0.00 | 21 | 1007.7 |
| 20260503233047 | 73 | 302 | 10.0 | 19.0 | 0.00 | 0.00 | 0.00 | 19 | 1007.6 |
| 20260503231541 | 73 | 296 | 11.0 | 23.0 | 0.00 | 0.00 | 0.00 | 19 | 1007.7 |
| 20260503230042 | 72 | 326 | 12.0 | 19.0 | 0.00 | 0.00 | 0.00 | 19 | 1007.8 |
| 20260503224536 | 72 | 341 | 9.0 | 21.0 | 0.00 | 0.00 | 0.00 | 20 | 1008.0 |
| 20260503223036 | 73 | 307 | 8.0 | 19.0 | 0.00 | 0.00 | 0.00 | 20 | 1008.0 |
| 20260503221555 | 72 | 329 | 10.0 | 18.0 | 0.00 | 0.00 | 0.00 | 19 | 1008.2 |
| 20260503220046 | 73 | 340 | 9.0 | 18.0 | 0.00 | 0.00 | 0.00 | 19 | 1008.6 |
| 20260503214541 | 72 | 324 | 10.0 | 18.0 | 0.00 | 0.00 | 0.00 | 20 | 1008.7 |
| 20260503213043 | 71 | 302 | 10.0 | 17.0 | 0.00 | 0.00 | 0.00 | 20 | 1008.8 |
| 20260503211540 | 72 | 350 | 12.0 | 20.0 | 0.00 | 0.00 | 0.00 | 20 | 1008.9 |
| 20260503210039 | 72 | 305 | 8.0 | 18.0 | 0.00 | 0.00 | 0.00 | 20 | 1009.1 |
| 20260503204536 | 72 | 312 | 8.0 | 19.0 | 0.00 | 0.00 | 0.00 | 21 | 1009.4 |
| 20260503203053 | 71 | 269 | 10.0 | 23.0 | 0.00 | 0.00 | 0.00 | 20 | 1009.5 |
| 20260503201549 | 70 | 299 | 13.0 | 19.0 | 0.00 | 0.00 | 0.00 | 21 | 1009.7 |
| 20260503200055 | 70 | 235 | 5.0 | 19.0 | 0.00 | 0.00 | 0.00 | 22 | 1009.8 |
| 20260503194543 | 70 | 332 | 9.0 | 18.0 | 0.00 | 0.00 | 0.00 | 22 | 1010.2 |
| 20260503193043 | 69 | 309 | 9.0 | 16.0 | 0.00 | 0.00 | 0.00 | 22 | 1010.4 |
| 20260503191537 | 69 | 325 | 9.0 | 17.0 | 0.00 | 0.00 | 0.00 | 23 | 1010.6 |
| 20260503190035 | 68 | 285 | 8.0 | 29.0 | 0.00 | 0.00 | 0.00 | 26 | 1010.8 |
| 20260503184541 | 68 | 290 | 10.0 | 19.0 | 0.00 | 0.00 | 0.00 | 25 | 1010.9 |
| 20260503183041 | 68 | 255 | 8.0 | 19.0 | 0.00 | 0.00 | 0.00 | 25 | 1011.0 |
| 20260503181542 | 68 | 292 | 6.0 | 13.0 | 0.00 | 0.00 | 0.00 | 24 | 1011.2 |
| 20260503180050 | 68 | 309 | 8.0 | 14.0 | 0.00 | 0.00 | 0.00 | 23 | 1011.4 |
| 20260503174542 | 67 | 211 | 7.0 | 15.0 | 0.00 | 0.00 | 0.00 | 24 | 1011.7 |
| 20260503173042 | 68 | 321 | 8.0 | 16.0 | 0.00 | 0.00 | 0.00 | 23 | 1011.9 |
| 20260503171547 | 67 | 321 | 8.0 | 16.0 | 0.00 | 0.00 | 0.00 | 25 | 1011.9 |
| 20260503081537 | 45 | 224 | 7.0 | 10.0 | 0.00 | 0.00 | 0.00 | 68 | 1014.5 |
| 20260503071602 | 43 | 243 | 5.0 | 7.0 | 0.00 | 0.00 | 0.00 | 70 | 1014.8 |
| 20260503054555 | 46 | 236 | 3.0 | 8.0 | 0.00 | 0.00 | 0.00 | 61 | 1015.2 |
| 20260503053040 | 49 | 233 | 5.0 | 8.0 | 0.00 | 0.00 | 0.00 | 57 | 1015.3 |
| 20260503051539 | 49 | 227 | 3.0 | 5.0 | 0.00 | 0.00 | 0.00 | 55 | 1015.4 |
| 20260503050039 | 50 | 273 | 0.0 | 4.0 | 0.00 | 0.00 | 0.00 | 53 | 1015.4 |
| 20260503044542 | 49 | 236 | 8.0 | 14.0 | 0.00 | 0.00 | 0.00 | 56 | 1015.5 |
| 20260503043043 | 51 | 0 | 0.0 | 1.0 | 0.00 | 0.00 | 0.00 | 52 | 1015.2 |
| 20260503041543 | 53 | 0 | 0.0 | 2.0 | 0.00 | 0.00 | 0.00 | 51 | 1015.2 |
| 20260503040051 | 53 | 0 | 0.0 | 1.0 | 0.00 | 0.00 | 0.00 | 49 | 1015.2 |